This is the latest recevied weather packets stored in our database for station/object OM6ACB-6. If no packets are shown the sender has not sent any weather packets the latest 10 day(s).
| Time | Temp. | Humidity | Pressure | Rain* | Wind** | Luminosity | Snow |
|---|---|---|---|---|---|---|---|
| 1788634582 | 13.89° C | 26% | 1022.7 hPa | 0 mm | - | - | - |
| 1788633982 | 13.89° C | 26% | 1022.7 hPa | 0 mm | - | - | - |
| 1788633381 | 13.89° C | 26% | 1022.7 hPa | 0 mm | - | - | - |
| 1788632781 | 13.89° C | 25% | 1022.6 hPa | 0 mm | - | - | - |
| 1788632181 | 14.44° C | 25% | 1022.5 hPa | 0 mm | - | - | - |
| 1788631581 | 15.56° C | 25% | 1022.5 hPa | 0 mm | - | - | - |
| 1788630980 | 15.56° C | 25% | 1022.5 hPa | 0 mm | - | - | - |
| 1788630380 | 15.56° C | 25% | 1022.4 hPa | 0 mm | - | - | - |
| 1788629780 | 16.67° C | 24% | 1022.3 hPa | 0 mm | - | - | - |
| 1788629179 | 16.67° C | 24% | 1022.3 hPa | 0 mm | - | - | - |
| 1788628579 | 18.89° C | 23% | 1022.4 hPa | 0 mm | - | - | - |
| 1788627979 | 19.44° C | 23% | 1022.5 hPa | 0 mm | - | - | - |
| 1788627378 | 19.44° C | 23% | 1022.3 hPa | 0 mm | - | - | - |
| 1788626778 | 19.44° C | 23% | 1022 hPa | 0 mm | - | - | - |
| 1788626178 | 20.56° C | 22% | 1022.2 hPa | 0 mm | - | - | - |
| 1788625578 | 20.56° C | 22% | 1022 hPa | 0 mm | - | - | - |
| 1788624977 | 21.11° C | 22% | 1022.2 hPa | 0 mm | - | - | - |
| 1788624377 | 23.33° C | 21% | 1022.3 hPa | 0 mm | - | - | - |
| 1788623777 | 24.44° C | 20% | 1022.5 hPa | 0 mm | - | - | - |
| 1788623176 | 23.89° C | 21% | 1022.5 hPa | 0 mm | - | - | - |
| 1788622576 | 25° C | 20% | 1022.6 hPa | 0 mm | - | - | - |
| 1788621976 | 25.56° C | 20% | 1022.8 hPa | 0 mm | - | - | - |
| 1788621376 | 25° C | 20% | 1022.8 hPa | 0 mm | - | - | - |
| 1788620775 | 24.44° C | 20% | 1022.7 hPa | 0 mm | - | - | - |
| 1788620175 | 24.44° C | 20% | 1022.8 hPa | 0 mm | - | - | - |
* Rain latest hour (hover to see other rain measurements)
** Current wind speed in m/s (hover to see current wind gust speed)